Flag for Poland Weather past 2 weeks in Grudziądz, Poland

Now
77 °F

Partly sunny.


Feels Like: 78 °F
Forecast: 49 / 77 °F
Wind: 3 mph from Southwest

Location: Torun

Current Time: Jun 30, 2015 at 2:59:34 PM

Latest Report: Jun 30, 2015 at 2:00 PM


Visibility: 19 mi

Pressure: 30.10 "Hg

Humidity: 44%

Dew point: 53 °F

Location of GrudziądzLocation

Historic Weather in Grudziądz — Graph

°F

Grudziądz temperature yesterday

Maximum temperature yesterday: 70 °F (at 5:00 PM)
Minimum temperature yesterday: 59 °F (at 6:00 AM)
Average temperature yesterday: 65 °F

Past Weeks' High & Low Weather Summary

 TemperatureHumidityPressure
High74 °F (Jun 30, 12:00 PM)97% (Jun 22, 6:00 AM)30.20 "Hg (Jun 22, 6:00 AM)
Low41 °F (Jun 16, 5:00 AM)28% (Jun 15, 5:00 PM)29.64 "Hg (Jun 23, 4:00 AM)
Average59 °F69%29.99 "Hg
* Reported Jun 15 1:00 PM — Jun 30 1:00 PM, Grudziądz, Weather by CustomWeather, © 2015

Note: Actual official high and low records may vary slightly from our data, if they occured in-between our weather recording intervals... More about our weather records

Advertising

Grudziądz weather history for previous 24 hours

 ConditionsComfort  
Time TempWeatherWind HumidityBarometerVisibility
1:00 PM
Tue, Jun 30
73 °FSprinkles. Overcast.1 mph50%30.12 "Hg28 mi
12:00 PM74 °FPartly sunny.3 mph51%30.12 "Hg19 mi
11:00 AM71 °FScattered clouds.2 mph58%30.13 "Hg19 mi
10:00 AM68 °FPartly sunny.3 mph66%30.14 "Hg19 mi
9:00 AM65 °FPartly sunny.2 mph72%30.14 "Hg12 mi
8:00 AM63 °FScattered clouds.1 mph76%30.13 "Hg11 mi
7:00 AM59 °FPartly sunny.1 mph86%30.14 "Hg8 mi
6:00 AM56 °FOvercast.No wind93%30.15 "Hg7 mi
5:00 AM54 °FFog.1 mph94%30.14 "Hg5 mi
4:00 AM53 °FFog.No wind94%30.14 "Hg3 mi
3:00 AM52 °FFog.No wind94%30.15 "Hg2 mi
2:00 AM52 °FFog.No wind93%30.15 "Hg3 mi
1:00 AM53 °FFog.No wind92%30.15 "Hg2 mi
12:00 AM55 °FPassing clouds.1 mph90%30.16 "Hg6 mi
10:00 PM
Mon, Jun 29
61 °FPassing clouds.1 mph76%30.15 "Hg22 mi
9:00 PM65 °FPartly sunny.1 mph67%30.14 "Hg22 mi
8:00 PM68 °FPartly sunny.2 mph61%30.14 "Hg25 mi
7:00 PM70 °FScattered clouds.2 mph48%30.12 "Hg25 mi
6:00 PM70 °FPartly sunny.2 mph46%30.12 "Hg31 mi
5:00 PM70 °FPartly sunny.1 mph45%30.12 "Hg25 mi
4:00 PM70 °FOvercast.2 mph45%30.13 "Hg28 mi
3:00 PM70 °FOvercast.2 mph50%30.13 "Hg28 mi
2:00 PM70 °FOvercast.3 mph51%30.14 "Hg25 mi
Weather by CustomWeather, © 2015

See weather overviewHow to use our weather pages